Location: Gwatt
(46.7204°N, 7.6223°E)
Time: 19:41:12
(UTC+00:00)

Transit 2A - Pass Details

Date: 29 January 2021
Orbit: 600 x 958 km, 66.7° (Epoch: 26 February)

Event Time Altitude Azimuth Distance (km) Brightness Sun altitude
Rises 10:01:42 0° 329° (NNW) 3,030 8.5 21.6°
Reaches altitude 10° 10:04:11 10° 336° (NNW) 2,065 7.7 21.8°
Maximum altitude 10:08:36 44° 49° (NE) 870 6.4 22.1°
Drops below altitude 10° 10:12:46 10° 122° (ESE) 1,950 9.2 22.4°
Sets 10:15:03 0° 129° (SE) 2,840 10.0 22.5°
